Location: Santa Giusta
(39.8800°N, 8.6069°E)
Time: 16:30:19
(UTC+00:00)

Cosmos 2058 Rocket - Pass Details

Date: 02 February 2023
Orbit: 610 x 637 km, 82.5° (Epoch: 31 March)

Event Time Altitude Azimuth Distance (km) Brightness Sun altitude
Rises 17:43:50 0° 5° (N) 2,895 6.3 -11.5°
Reaches altitude 10° 17:46:25 10° 20° (NNE) 1,990 5.4 -12.0°
Maximum altitude 17:50:01 24° 75° (ENE) 1,282 4.1 -12.7°
Drops below altitude 10° 17:53:38 10° 130° (SE) 1,992 5.3 -13.3°
Sets 17:56:12 0° 144° (SE) 2,899 6.2 -13.8°
